This is the latest recevied weather packets stored in our database for station/object KD6VPH. If no packets are shown the sender has not sent any weather packets the latest 10 day(s).
| Time | Temp. | Humidity | Pressure | Rain* | Wind** | Luminosity | Snow |
|---|---|---|---|---|---|---|---|
| 1777576526 | 18.33° C | 64% | 1017.5 hPa | 0 mm | - | 833 W/m² | - |
| 1777575326 | 18.89° C | 63% | 1017.9 hPa | 0 mm | - | 466 W/m² | - |
| 1777574725 | 18.89° C | 63% | 1018 hPa | 0 mm | - | 696 W/m² | - |
| 1777574126 | 18.33° C | 64% | 1017.9 hPa | 0 mm | - | 1023 W/m² | - |
| 1777573526 | 17.78° C | 66% | 1018 hPa | 0 mm | - | 1058 W/m² | - |
| 1777572926 | 17.22° C | 67% | 1018.1 hPa | 0 mm | - | 608 W/m² | - |
| 1777572326 | 17.22° C | 67% | 1018.1 hPa | 0 mm | - | 552 W/m² | - |
| 1777571126 | 16.11° C | 68% | 1018.1 hPa | 0 mm | - | 371 W/m² | - |
| 1777570526 | 16.11° C | 68% | 1018.5 hPa | 0 mm | - | 325 W/m² | - |
| 1777569926 | 16.11° C | 68% | 1018.5 hPa | 0 mm | - | 279 W/m² | - |
| 1777569326 | 16.11° C | 68% | 1018.5 hPa | 0 mm | - | 288 W/m² | - |
| 1777568726 | 15.56° C | 70% | 1018.8 hPa | 0 mm | - | 306 W/m² | - |
| 1777568126 | 15° C | 69% | 1018.7 hPa | 0 mm | - | 311 W/m² | - |
| 1777566926 | 13.89° C | 74% | 1018.9 hPa | 0 mm | - | 251 W/m² | - |
| 1777566326 | 13.33° C | 75% | 1018.9 hPa | 0 mm | - | 197 W/m² | - |
| 1777565726 | 13.33° C | 77% | 1018.9 hPa | 0 mm | - | 181 W/m² | - |
| 1777565126 | 12.22° C | 80% | 1019.1 hPa | 0 mm | - | 262 W/m² | - |
| 1777564526 | 11.11° C | 85% | 1019.1 hPa | 0 mm | - | 218 W/m² | - |
| 1777563926 | 10.56° C | 89% | 1019.1 hPa | 0 mm | - | 378 W/m² | - |
| 1777563326 | 9.44° C | 90% | 1019.2 hPa | 0 mm | - | 88 W/m² | - |
| 1777562726 | 8.89° C | 90% | 1019.3 hPa | 0 mm | - | 74 W/m² | - |
| 1777562416 | 8.33° C | 90% | 1019.3 hPa | 0 mm | - | 74 W/m² | - |
| 1777562126 | 8.33° C | 90% | 1019.3 hPa | 0 mm | - | 74 W/m² | - |
| 1777561526 | 7.78° C | 90% | 1019.4 hPa | 0 mm | - | 83 W/m² | - |
| 1777560926 | 7.22° C | 89% | 1019.5 hPa | 0 mm | - | 84 W/m² | - |
* Rain latest hour (hover to see other rain measurements)
** Current wind speed in m/s (hover to see current wind gust speed)